Weather in Bekilli

Turkey     38°13′36″N   29°25′18″E
temp.,
°C
wind,
m/s
gust,
m/s
humid.,
%
clouds,
%
prec.,
mm/h
press.,
hPa
HPBL,
m
25 february, thu
thu2500:00+5ne235934 0.0 102834
03:00+3ene227467 0.0 102845
06:00+1ne228132 0.0 102831
09:00+2ene337416 0.0 1029264
12:00+7ene46540 0.0 1028731
15:00+10ene56440 0.0 10261092
18:00+9ene56500 0.0 1026882
21:00+5ene33690 0.0 102864
26 february, fri
fri2600:00+3e22750 0.0 102934
03:00+2e23790 0.0 102929
06:00+1e23800 0.0 102825
09:00+3ese22720 0.0 1027101
12:00+8e12500 0.0 1025516
15:00+13nne02340 0.0 1022880
18:00+13nw12400 0.0 1021375
21:00+8e12560 0.0 102224
27 february, sat
sat2700:00+6e22600 0.0 102222
03:00+4ese12660 0.0 102122
06:00+3e22680 0.0 102022
09:00+6ese12580 0.0 102051
12:00+11se11380 0.0 1018431
15:00+14wnw11270 0.0 1016826
18:00+14wnw23330 0.0 1015125
21:00+9wnw22480 0.0 101722
28 february, sun
sun2800:00+6wnw11600 0.0 101822
03:00+5wnw11710 0.0 101822
06:00+4nw12840 0.0 101822
09:00+7nw11720 0.0 101988
12:00+10nnw23470 0.0 1018735
15:00+13nne32380 0.0 10181893
18:00+10ne565477 0.0 10191047
21:00+6ne476379 0.0 1023585
1 march, mon
mon100:00+3ne36655 0.0 1025423
03:000nne23692 0.0 102672
06:00−1nne22730 0.0 102734
09:000ne23630 0.0 1027365
12:00+4nne34410 0.0 10261000
15:00+8ne78270 0.0 10241554
18:00+5ne79360 0.0 10251090
21:00+2ne39580 0.0 1028550